Melville Hall, Dominica

6:37 AM AST on June 24, 2017 (GMT -0400)
Melville Hall

Weather History for TDPD - November, 2012

Change the Weather History Date:

Sunday, November 11, 2012

  Actual Average Record
Temperature  
Mean Temperature 80 °F -  
Max Temperature 87 °F 82 °F 88 °F (2013)
Min Temperature 73 °F 74 °F 73 °F (2000)
Cooling Degree Days 15    
Growing Degree Days 30 (Base 50)    
Moisture  
Dew Point 75 °F    
Average Humidity 79    
Maximum Humidity 94    
Minimum Humidity 67    
Precipitation  
Precipitation 0.24 in 0.43 in - ()
Sea Level Pressure  
Sea Level Pressure 29.89 in    
Wind  
Wind Speed 6 mph ()    
Max Wind Speed 12 mph    
Max Gust Speed -    
Visibility 7.7 miles    
Events Rain    
Averages and records for this station are not official NWS values.
T = Trace of Precipitation, MM = Missing Value Source: Averaged Metar Reports

Daily Weather History Graph

Daily Weather History Graph

Search for Another Location

Airport or City:

Trip Planner

Search our weather history database for the weather conditions in past years. The results will help you decide how hot, cold, wet, or windy it might be!

Date:

Astronomy

Nov. 11, 2012 Rise Set
Actual Time 6:05 AM AST 5:32 PM AST
Civil Twilight 5:43 AM AST 5:55 PM AST
Nautical Twilight 5:17 AM AST 6:20 PM AST
Astronomical Twilight 4:51 AM AST 6:46 PM AST
Moon 3:34 AM AST (11/11) 3:37 PM AST (11/11)
Length of Visible Light 12h 11m
Length of Day
11h 26m
Waning Crescent, 7% of the Moon is Illuminated
Nov 11
Waning Crescent
Nov 13
New
Nov 20
First Quarter
Nov 28
Full
Dec 6
Last Quarter

Hourly Weather History & Observations

Time (AST) Temp. Heat Index Dew Point Humidity Pressure Visibility Wind Dir Wind Speed Gust Speed Precip Events Conditions
6:00 AM 73.4 °F - 71.6 °F 94% 29.86 in 6.2 mi West 4.6 mph - N/A   Mostly Cloudy
7:00 AM 77.0 °F - 73.4 °F 89% 29.89 in 6.2 mi West 6.9 mph - N/A   Scattered Clouds
8:00 AM 84 °F - 75 °F 67% 29.92 in 17 mi West 3.5 mph - -   Partly Cloudy
8:00 AM 84.2 °F 92.3 °F 75.2 °F 74% 29.92 in 6.2 mi West 3.5 mph - N/A   Scattered Clouds
9:00 AM 86.0 °F 95.1 °F 75.2 °F 70% 29.92 in 6.2 mi East 8.1 mph - N/A   Scattered Clouds
10:00 AM 86.0 °F 95.1 °F 75.2 °F 70% 29.92 in 5.0 mi East 10.4 mph - N/A   Mostly Cloudy
11:00 AM 86 °F - 77 °F 68% 29.93 in 16 mi East 8.1 mph - -   Partly Cloudy
11:00 AM 86.0 °F 96.9 °F 77.0 °F 74% 29.92 in 6.2 mi East 8.1 mph - N/A   Scattered Clouds
12:00 PM 86.0 °F 95.1 °F 75.2 °F 70% 29.89 in 6.2 mi East 11.5 mph - N/A   Partly Cloudy
1:00 PM 78.8 °F - 77.0 °F 94% 29.89 in 3.7 mi ESE 9.2 mph - N/A Rain Light Rain Showers
2:00 PM 82 °F - 75 °F 75% 29.87 in 7 mi ESE 10.4 mph - -   Mostly Cloudy
2:00 PM 82.4 °F 89.5 °F 75.2 °F 79% 29.86 in 6.2 mi ESE 10.4 mph - N/A   Scattered Clouds
3:00 PM 84.2 °F 92.3 °F 75.2 °F 74% 29.86 in 6.2 mi ESE 6.9 mph - N/A   Mostly Cloudy
4:00 PM 82.4 °F 89.5 °F 75.2 °F 79% 29.83 in 6.2 mi ESE 6.9 mph - N/A   Mostly Cloudy
5:00 PM 78 °F - 75 °F 88% 29.87 in 7 mi SE 3.5 mph - - Rain Light Rain Showers
5:00 PM 78.8 °F - 75.2 °F 89% 29.86 in 6.2 mi SE 3.5 mph - N/A Rain Light Rain Showers
6:00 PM 78.8 °F - 77.0 °F 94% 29.86 in 6.2 mi SSW 2.3 mph - N/A   Mostly Cloudy
7:00 PM 80.6 °F 86.2 °F 75.2 °F 84% 29.89 in 6.2 mi ESE 5.8 mph - N/A   Mostly Cloudy
8:00 PM 81 °F - 74 °F 73% 29.92 in 17 mi SE 5.8 mph - -   Partly Cloudy
8:00 PM 80.6 °F 85.4 °F 73.4 °F 79% 29.92 in 6.2 mi SE 5.8 mph - N/A   Partly Cloudy